N3598W KLAX-KSAN

Flight info

Callsign N3598W
Flight time 1h 1m
Altitude 5000
Route SLI8 SLI MZB
Aircraft D40/L-RNAV/C

Departure

Time 2026-04-23 03:55
Airport Los Angeles International Airport (KLAX)

Arrival

Time 2026-04-23 04:56
Airport San Diego International Airport (KSAN)
Time Latitude Longitude Altitude Speed Heading
2026-04-23 03:25 33.94116 -118.39284 119 ft 0 kts 359°
2026-04-23 03:43 33.94118 -118.39284 117 ft 0 kts 351°
2026-04-23 03:43 33.94119 -118.39285 118 ft 1 kts 332°
2026-04-23 03:43 33.94125 -118.39291 118 ft 0 kts 297°
2026-04-23 03:44 33.94125 -118.39310 119 ft 3 kts 242°
2026-04-23 03:45 33.94120 -118.39318 118 ft 0 kts 218°
2026-04-23 03:45 33.94105 -118.39330 118 ft 3 kts 182°
2026-04-23 03:45 33.94054 -118.39308 118 ft 8 kts 153°
2026-04-23 03:45 33.94032 -118.39317 119 ft 1 kts 158°
2026-04-23 03:46 33.94032 -118.39288 119 ft 6 kts 125°
2026-04-23 03:46 33.94014 -118.39230 119 ft 7 kts 142°
2026-04-23 03:46 33.93969 -118.39192 118 ft 6 kts 115°
2026-04-23 03:46 33.93971 -118.39121 118 ft 10 kts 76°
2026-04-23 03:47 33.93984 -118.38988 117 ft 22 kts 87°
2026-04-23 03:47 33.93996 -118.38853 119 ft 27 kts 82°
2026-04-23 03:47 33.94020 -118.38606 119 ft 32 kts 81°
2026-04-23 03:47 33.94045 -118.38372 119 ft 10 kts 80°
2026-04-23 03:48 33.94057 -118.38297 119 ft 11 kts 81°
2026-04-23 03:48 33.94066 -118.38186 119 ft 15 kts 85°
2026-04-23 03:48 33.94077 -118.38044 119 ft 16 kts 93°
2026-04-23 03:48 33.94076 -118.38033 119 ft 0 kts 95°
2026-04-23 03:50 33.94076 -118.38031 119 ft 0 kts 102°
2026-04-23 03:53 33.94076 -118.38030 119 ft 1 kts 107°
2026-04-23 03:53 33.94053 -118.38001 117 ft 8 kts 166°
2026-04-23 03:54 33.93983 -118.38036 119 ft 15 kts 256°
2026-04-23 03:54 33.93951 -118.38351 119 ft 60 kts 262°
2026-04-23 03:54 33.93882 -118.38915 238 ft 75 kts 261°
2026-04-23 03:54 33.93829 -118.39514 493 ft 71 kts 261°
2026-04-23 03:55 33.93766 -118.40122 654 ft 76 kts 260°
2026-04-23 03:55 33.93703 -118.40742 902 ft 73 kts 265°
2026-04-23 03:55 33.93627 -118.41341 1102 ft 78 kts 259°
2026-04-23 03:55 33.93523 -118.41982 1348 ft 79 kts 265°
2026-04-23 03:56 33.93432 -118.42642 1613 ft 77 kts 259°
2026-04-23 03:56 33.93330 -118.43296 1831 ft 81 kts 263°
2026-04-23 03:56 33.93087 -118.43883 2035 ft 90 kts 218°
2026-04-23 03:56 33.92539 -118.44252 2294 ft 89 kts 210°
2026-04-23 03:57 33.91981 -118.44586 2454 ft 93 kts 223°
2026-04-23 03:57 33.91562 -118.45072 2696 ft 85 kts 237°
2026-04-23 03:57 33.91128 -118.45600 2861 ft 88 kts 219°
2026-04-23 03:57 33.90574 -118.45968 2972 ft 95 kts 217°
2026-04-23 03:58 33.89967 -118.46268 3190 ft 93 kts 185°
2026-04-23 03:58 33.89357 -118.45904 3306 ft 102 kts 126°
2026-04-23 03:58 33.88982 -118.45213 3500 ft 95 kts 112°
2026-04-23 03:58 33.88743 -118.44461 3653 ft 94 kts 101°
2026-04-23 03:59 33.88583 -118.43685 3762 ft 100 kts 103°
2026-04-23 03:59 33.88378 -118.42923 3949 ft 95 kts 100°
2026-04-23 03:59 33.88376 -118.42103 4039 ft 100 kts 92°
2026-04-23 03:59 33.88195 -118.41352 4264 ft 99 kts 112°
2026-04-23 04:00 33.87864 -118.40629 4472 ft 94 kts 115°
2026-04-23 04:00 33.87631 -118.39859 4576 ft 98 kts 94°
2026-04-23 04:00 33.87495 -118.39075 4749 ft 99 kts 109°
2026-04-23 04:00 33.87262 -118.38324 4918 ft 98 kts 111°
2026-04-23 04:01 33.86950 -118.37571 5050 ft 102 kts 109°
2026-04-23 04:01 33.86672 -118.36702 5050 ft 116 kts 107°
2026-04-23 04:01 33.86405 -118.35790 5074 ft 116 kts 105°
2026-04-23 04:01 33.86191 -118.34849 5069 ft 118 kts 104°
2026-04-23 04:02 33.85989 -118.34046 5272 ft 101 kts 102°
2026-04-23 04:02 33.85792 -118.33153 5164 ft 119 kts 105°
2026-04-23 04:02 33.85524 -118.32162 5046 ft 130 kts 107°
2026-04-23 04:02 33.85239 -118.31129 5023 ft 129 kts 105°
2026-04-23 04:03 33.84962 -118.30109 5016 ft 126 kts 105°
2026-04-23 04:03 33.84695 -118.29114 5020 ft 125 kts 105°
2026-04-23 04:03 33.84429 -118.28114 5018 ft 126 kts 105°
2026-04-23 04:03 33.84158 -118.27105 5014 ft 127 kts 106°
2026-04-23 04:04 33.83886 -118.26089 5015 ft 130 kts 106°
2026-04-23 04:04 33.83606 -118.25048 5016 ft 131 kts 106°
2026-04-23 04:04 33.83322 -118.23991 5016 ft 133 kts 106°
2026-04-23 04:04 33.83039 -118.22939 5021 ft 132 kts 106°
2026-04-23 04:05 33.82758 -118.21893 5020 ft 131 kts 105°
2026-04-23 04:05 33.82477 -118.20850 5021 ft 131 kts 106°
2026-04-23 04:05 33.82197 -118.19806 5025 ft 132 kts 106°
2026-04-23 04:05 33.81914 -118.18755 5024 ft 132 kts 106°
2026-04-23 04:06 33.81632 -118.17705 5024 ft 133 kts 105°
2026-04-23 04:06 33.81347 -118.16647 5024 ft 133 kts 105°
2026-04-23 04:06 33.81061 -118.15586 5026 ft 133 kts 106°
2026-04-23 04:06 33.80774 -118.14521 5025 ft 134 kts 107°
2026-04-23 04:07 33.80486 -118.13450 5025 ft 135 kts 106°
2026-04-23 04:07 33.80198 -118.12380 5023 ft 134 kts 107°
2026-04-23 04:07 33.79912 -118.11324 5024 ft 134 kts 107°
2026-04-23 04:07 33.79622 -118.10249 4998 ft 136 kts 107°
2026-04-23 04:08 33.79332 -118.09172 4950 ft 135 kts 107°
2026-04-23 04:08 33.79042 -118.08102 4950 ft 135 kts 107°
2026-04-23 04:08 33.78751 -118.07026 4951 ft 136 kts 107°
2026-04-23 04:08 33.78459 -118.05939 4953 ft 137 kts 107°
2026-04-23 04:09 33.78280 -118.04820 4948 ft 136 kts 94°
2026-04-23 04:09 33.78196 -118.03684 4947 ft 136 kts 92°
2026-04-23 04:09 33.78115 -118.02550 4946 ft 137 kts 93°
2026-04-23 04:09 33.78032 -118.01401 4968 ft 138 kts 93°
2026-04-23 04:10 33.77947 -118.00262 4970 ft 139 kts 94°
2026-04-23 04:10 33.77861 -117.99103 4968 ft 140 kts 94°
2026-04-23 04:10 33.77775 -117.97939 4968 ft 140 kts 94°
2026-04-23 04:10 33.77687 -117.96775 4971 ft 141 kts 94°
2026-04-23 04:11 33.77600 -117.95603 4965 ft 140 kts 94°
2026-04-23 04:11 33.77512 -117.94435 4970 ft 140 kts 94°
2026-04-23 04:11 33.77425 -117.93270 4969 ft 140 kts 94°
2026-04-23 04:11 33.77337 -117.92107 5001 ft 139 kts 94°
2026-04-23 04:12 33.77251 -117.90962 5004 ft 139 kts 94°
2026-04-23 04:12 33.77163 -117.89790 5003 ft 139 kts 94°
2026-04-23 04:12 33.77077 -117.88649 5004 ft 139 kts 94°
2026-04-23 04:12 33.76990 -117.87495 5007 ft 139 kts 94°
2026-04-23 04:13 33.76903 -117.86337 5005 ft 139 kts 94°
2026-04-23 04:13 33.76815 -117.85181 5007 ft 139 kts 94°
2026-04-23 04:13 33.76727 -117.84015 5003 ft 140 kts 94°
2026-04-23 04:13 33.76638 -117.82850 5003 ft 140 kts 94°
2026-04-23 04:14 33.76549 -117.81684 5004 ft 140 kts 94°
2026-04-23 04:14 33.76461 -117.80522 5006 ft 140 kts 94°
2026-04-23 04:14 33.76372 -117.79354 5004 ft 140 kts 94°
2026-04-23 04:14 33.76262 -117.78185 5000 ft 142 kts 103°
2026-04-23 04:15 33.75793 -117.77165 5000 ft 140 kts 135°
2026-04-23 04:15 33.74976 -117.76565 4997 ft 138 kts 160°
2026-04-23 04:15 33.73187 -117.75725 5002 ft 138 kts 162°
2026-04-23 04:16 33.72288 -117.75305 4998 ft 138 kts 161°
2026-04-23 04:16 33.71393 -117.74885 4998 ft 138 kts 162°
2026-04-23 04:16 33.70497 -117.74464 4998 ft 138 kts 162°
2026-04-23 04:16 33.69601 -117.74043 4997 ft 138 kts 162°
2026-04-23 04:17 33.68710 -117.73624 4999 ft 138 kts 162°
2026-04-23 04:17 33.67814 -117.73204 4996 ft 138 kts 162°
2026-04-23 04:17 33.66900 -117.72979 4996 ft 136 kts 175°
2026-04-23 04:17 33.65965 -117.72823 4995 ft 135 kts 176°
2026-04-23 04:18 33.65031 -117.72669 4997 ft 135 kts 176°
2026-04-23 04:18 33.64143 -117.72511 5127 ft 113 kts 176°
2026-04-23 04:18 33.63342 -117.72376 5082 ft 122 kts 176°
2026-04-23 04:18 33.62478 -117.72235 5005 ft 126 kts 176°
2026-04-23 04:19 33.61619 -117.72093 5004 ft 123 kts 176°
2026-04-23 04:19 33.60775 -117.71951 5001 ft 122 kts 176°
2026-04-23 04:19 33.59938 -117.71811 5000 ft 121 kts 176°
2026-04-23 04:19 33.59105 -117.71670 5000 ft 120 kts 176°
2026-04-23 04:20 33.58274 -117.71531 5001 ft 120 kts 176°
2026-04-23 04:20 33.57446 -117.71392 4999 ft 120 kts 176°
2026-04-23 04:20 33.56594 -117.71252 4991 ft 127 kts 176°
2026-04-23 04:20 33.55718 -117.71107 4993 ft 130 kts 176°
2026-04-23 04:21 33.54809 -117.70956 4993 ft 132 kts 176°
2026-04-23 04:21 33.53891 -117.70802 4993 ft 134 kts 176°
2026-04-23 04:21 33.52966 -117.70647 4998 ft 134 kts 176°
2026-04-23 04:21 33.52036 -117.70492 4993 ft 136 kts 176°
2026-04-23 04:22 33.51100 -117.70334 4994 ft 135 kts 176°
2026-04-23 04:22 33.50175 -117.70180 4995 ft 136 kts 176°
2026-04-23 04:22 33.49227 -117.70021 4996 ft 136 kts 176°
2026-04-23 04:22 33.48302 -117.69806 4990 ft 139 kts 162°
2026-04-23 04:23 33.47509 -117.69146 4985 ft 141 kts 140°
2026-04-23 04:23 33.46809 -117.68331 4987 ft 140 kts 138°
2026-04-23 04:23 33.46113 -117.67510 4985 ft 140 kts 138°
2026-04-23 04:23 33.45418 -117.66691 4987 ft 141 kts 138°
2026-04-23 04:24 33.44719 -117.65871 4986 ft 140 kts 138°
2026-04-23 04:24 33.44019 -117.65051 4983 ft 140 kts 138°
2026-04-23 04:24 33.43321 -117.64233 4981 ft 140 kts 138°
2026-04-23 04:24 33.42625 -117.63418 4983 ft 140 kts 139°
2026-04-23 04:25 33.41926 -117.62600 4984 ft 140 kts 138°
2026-04-23 04:25 33.41226 -117.61781 4984 ft 141 kts 138°
2026-04-23 04:25 33.40528 -117.60965 4986 ft 142 kts 138°
2026-04-23 04:25 33.39822 -117.60140 4985 ft 142 kts 138°
2026-04-23 04:26 33.39115 -117.59314 4985 ft 142 kts 138°
2026-04-23 04:26 33.38404 -117.58482 4987 ft 143 kts 138°
2026-04-23 04:26 33.37689 -117.57647 4986 ft 144 kts 138°
2026-04-23 04:26 33.36973 -117.56811 4985 ft 143 kts 138°
2026-04-23 04:27 33.36266 -117.55985 4986 ft 143 kts 138°
2026-04-23 04:27 33.35552 -117.55151 4984 ft 143 kts 138°
2026-04-23 04:27 33.34842 -117.54322 4985 ft 142 kts 138°
2026-04-23 04:28 33.33432 -117.52678 4985 ft 141 kts 139°
2026-04-23 04:28 33.32729 -117.51859 4989 ft 141 kts 139°
2026-04-23 04:28 33.32030 -117.51043 4989 ft 140 kts 139°
2026-04-23 04:28 33.31331 -117.50228 4988 ft 141 kts 139°
2026-04-23 04:29 33.30636 -117.49419 4987 ft 141 kts 139°
2026-04-23 04:29 33.29934 -117.48600 4989 ft 140 kts 139°
2026-04-23 04:29 33.29235 -117.47786 4990 ft 140 kts 139°
2026-04-23 04:29 33.28537 -117.46973 4992 ft 140 kts 139°
2026-04-23 04:30 33.27839 -117.46160 4992 ft 140 kts 139°
2026-04-23 04:30 33.27139 -117.45345 4992 ft 140 kts 139°
2026-04-23 04:30 33.26439 -117.44531 4992 ft 140 kts 139°
2026-04-23 04:30 33.25749 -117.43728 4990 ft 140 kts 139°
2026-04-23 04:31 33.25083 -117.42873 4991 ft 142 kts 124°
2026-04-23 04:31 33.24587 -117.41857 4994 ft 142 kts 121°
2026-04-23 04:31 33.24108 -117.40824 4994 ft 142 kts 121°
2026-04-23 04:31 33.23629 -117.39789 4980 ft 142 kts 121°
2026-04-23 04:32 33.23151 -117.38757 4981 ft 142 kts 121°
2026-04-23 04:32 33.22672 -117.37724 4981 ft 142 kts 121°
2026-04-23 04:32 33.22195 -117.36691 4981 ft 143 kts 121°
2026-04-23 04:32 33.21712 -117.35649 4981 ft 143 kts 121°
2026-04-23 04:33 33.21392 -117.34962 4982 ft 143 kts 121°
2026-04-23 04:33 33.20905 -117.33926 4979 ft 143 kts 121°
2026-04-23 04:33 33.20268 -117.32551 4981 ft 143 kts 121°
2026-04-23 04:33 33.19944 -117.31849 4979 ft 143 kts 121°
2026-04-23 04:34 33.19464 -117.30811 4979 ft 143 kts 121°
2026-04-23 04:34 33.18981 -117.29769 4979 ft 143 kts 121°
2026-04-23 04:34 33.18499 -117.28725 4977 ft 143 kts 121°
2026-04-23 04:34 33.18022 -117.27695 4978 ft 144 kts 121°
2026-04-23 04:35 33.17538 -117.26650 4980 ft 144 kts 121°
2026-04-23 04:35 33.17052 -117.25601 4977 ft 144 kts 121°
2026-04-23 04:35 33.16568 -117.24556 4978 ft 143 kts 121°
2026-04-23 04:35 33.16006 -117.23591 4974 ft 141 kts 143°
2026-04-23 04:36 33.15209 -117.22920 4974 ft 140 kts 150°
2026-04-23 04:36 33.14398 -117.22279 4977 ft 140 kts 151°
2026-04-23 04:36 33.13581 -117.21636 4978 ft 141 kts 150°
2026-04-23 04:36 33.12780 -117.21012 4975 ft 140 kts 151°
2026-04-23 04:37 33.11949 -117.20384 4976 ft 140 kts 152°
2026-04-23 04:37 33.11125 -117.19766 4976 ft 140 kts 152°
2026-04-23 04:37 33.10301 -117.19146 4926 ft 143 kts 152°
2026-04-23 04:37 33.09455 -117.18507 4888 ft 145 kts 152°
2026-04-23 04:38 33.08566 -117.17948 4828 ft 144 kts 159°
2026-04-23 04:38 33.07654 -117.17433 4777 ft 145 kts 158°
2026-04-23 04:38 33.06751 -117.16910 4723 ft 144 kts 158°
2026-04-23 04:38 33.05848 -117.16378 4670 ft 146 kts 158°
2026-04-23 04:39 33.04941 -117.15842 4612 ft 144 kts 157°
2026-04-23 04:39 33.04047 -117.15312 4565 ft 144 kts 158°
2026-04-23 04:39 33.03149 -117.14781 4514 ft 144 kts 158°
2026-04-23 04:39 33.02248 -117.14248 4461 ft 145 kts 157°
2026-04-23 04:40 33.01349 -117.13715 4411 ft 144 kts 157°
2026-04-23 04:40 33.00453 -117.13185 4367 ft 144 kts 157°
2026-04-23 04:40 32.99555 -117.12654 4316 ft 144 kts 157°
2026-04-23 04:40 32.98657 -117.12123 4268 ft 145 kts 157°
2026-04-23 04:41 32.97760 -117.11592 4216 ft 146 kts 157°
2026-04-23 04:41 32.96854 -117.11057 4163 ft 145 kts 158°
2026-04-23 04:41 32.95950 -117.10522 4116 ft 145 kts 157°
2026-04-23 04:41 32.95048 -117.09988 4056 ft 144 kts 157°
2026-04-23 04:42 32.94157 -117.09461 4010 ft 142 kts 157°
2026-04-23 04:42 32.93271 -117.08939 3988 ft 141 kts 157°
2026-04-23 04:42 32.92392 -117.08421 3987 ft 140 kts 157°
2026-04-23 04:42 32.91520 -117.07905 3988 ft 140 kts 157°
2026-04-23 04:43 32.90648 -117.07391 3986 ft 139 kts 158°
2026-04-23 04:43 32.89781 -117.06879 3985 ft 139 kts 157°
2026-04-23 04:43 32.88929 -117.06376 3986 ft 138 kts 157°
2026-04-23 04:43 32.88067 -117.05869 3981 ft 138 kts 157°
2026-04-23 04:44 32.87206 -117.05361 3985 ft 137 kts 157°
2026-04-23 04:44 32.86348 -117.04855 3997 ft 138 kts 157°
2026-04-23 04:44 32.85484 -117.04345 3994 ft 139 kts 157°
2026-04-23 04:44 32.84620 -117.03835 3993 ft 138 kts 157°
2026-04-23 04:45 32.83761 -117.03329 3994 ft 137 kts 157°
2026-04-23 04:45 32.82900 -117.02823 3987 ft 139 kts 156°
2026-04-23 04:45 32.82018 -117.02352 3966 ft 138 kts 158°
2026-04-23 04:45 32.81166 -117.01819 3949 ft 139 kts 155°
2026-04-23 04:46 32.80296 -117.01327 3974 ft 136 kts 158°
2026-04-23 04:46 32.79441 -117.00832 3961 ft 139 kts 155°
2026-04-23 04:46 32.78601 -117.00311 3973 ft 137 kts 156°
2026-04-23 04:46 32.77737 -116.99812 3961 ft 138 kts 157°
2026-04-23 04:47 32.76891 -116.99295 3995 ft 137 kts 156°
2026-04-23 04:47 32.76043 -116.98738 3975 ft 140 kts 155°
2026-04-23 04:47 32.75189 -116.98190 3999 ft 138 kts 153°
2026-04-23 04:47 32.74345 -116.97629 3973 ft 140 kts 154°
2026-04-23 04:48 32.73511 -116.97063 3991 ft 137 kts 158°
2026-04-23 04:48 32.72593 -116.96705 3955 ft 138 kts 168°
2026-04-23 04:48 32.71703 -116.96290 3992 ft 137 kts 156°
2026-04-23 04:48 32.70869 -116.95763 3938 ft 140 kts 157°
2026-04-23 04:49 32.69993 -116.95272 3967 ft 137 kts 165°
2026-04-23 04:49 32.69072 -116.95312 3954 ft 133 kts 204°
2026-04-23 04:49 32.68372 -116.95928 3895 ft 122 kts 236°
2026-04-23 04:49 32.68085 -116.96890 3690 ft 125 kts 265°
2026-04-23 04:50 32.68112 -116.97889 3519 ft 122 kts 277°
2026-04-23 04:50 32.68375 -116.98849 3298 ft 121 kts 295°
2026-04-23 04:50 32.68756 -116.99740 3023 ft 124 kts 300°
2026-04-23 04:50 32.69081 -117.00665 2849 ft 118 kts 286°
2026-04-23 04:51 32.69277 -117.01580 2736 ft 111 kts 282°
2026-04-23 04:51 32.69427 -117.02463 2679 ft 109 kts 282°
2026-04-23 04:51 32.69582 -117.03314 2693 ft 108 kts 285°
2026-04-23 04:51 32.69794 -117.04196 2630 ft 112 kts 287°
2026-04-23 04:52 32.70024 -117.05089 2550 ft 112 kts 289°
2026-04-23 04:52 32.70253 -117.05950 2446 ft 107 kts 288°
2026-04-23 04:52 32.70475 -117.06766 2337 ft 99 kts 288°
2026-04-23 04:52 32.70708 -117.07544 2114 ft 97 kts 288°
2026-04-23 04:53 32.70830 -117.08304 1972 ft 92 kts 273°
2026-04-23 04:53 32.70879 -117.09049 1784 ft 94 kts 287°
2026-04-23 04:53 32.71148 -117.09781 1554 ft 99 kts 300°
2026-04-23 04:53 32.71315 -117.10546 1428 ft 93 kts 278°
2026-04-23 04:54 32.71488 -117.11279 1232 ft 95 kts 292°
2026-04-23 04:54 32.71709 -117.11996 1129 ft 88 kts 285°
2026-04-23 04:54 32.71867 -117.12696 999 ft 86 kts 285°
2026-04-23 04:54 32.72019 -117.13378 915 ft 86 kts 287°
2026-04-23 04:55 32.72167 -117.14071 794 ft 89 kts 286°
2026-04-23 04:55 32.72364 -117.14766 693 ft 91 kts 289°
2026-04-23 04:55 32.72553 -117.15476 557 ft 91 kts 285°
2026-04-23 04:55 32.72673 -117.16177 537 ft 79 kts 286°
2026-04-23 04:56 32.72831 -117.16788 403 ft 77 kts 289°
2026-04-23 04:56 32.72978 -117.17414 209 ft 79 kts 287°
2026-04-23 04:56 32.73126 -117.18027 49 ft 73 kts 286°
2026-04-23 04:56 32.73251 -117.18516 18 ft 47 kts 288°
2026-04-23 04:57 32.73279 -117.18635 18 ft 1 kts 281°
2026-04-23 04:57 32.73298 -117.18808 18 ft 43 kts 259°
2026-04-23 04:57 32.73199 -117.19115 19 ft 44 kts 279°
2026-04-23 04:57 32.73259 -117.19387 18 ft 0 kts 292°